Location: Santa Cristina
(46.5667°N, 11.7167°E)
Time: 05:49:26
(UTC+00:00)

SL-08 R/B - Pass Details

Date: 21 April 2021
Orbit: 673 x 740 km, 98.5° (Epoch: 14 May)

Event Time Altitude Azimuth Distance (km) Brightness Sun altitude
Exits shadow 02:08:31 - 157° (SSE) 2,962 6.3 -19.5°
Reaches altitude 10° 02:10:20 10° 155° (SSE) 2,224 5.7 -19.2°
Maximum altitude 02:15:11 69° 73° (ENE) 773 3.6 -18.6°
Drops below altitude 10° 02:20:00 10° 351° (N) 2,202 6.3 -18.0°
Sets 02:22:15 0° 349° (NNW) 3,115 7.1 -17.7°
